Orbital elements:
2012 MY2 Earth MOID = 0.0029 AU
Epoch 2012 Mar. 14.0 TT = JDT 2456000.5 MPC
M 267.86091 (2000.0) P Q
n 0.70754979 Peri. 38.20404 +0.53038538 +0.84767152
a 1.2472822 Node 263.83050 -0.78074411 +0.48288871
e 0.1970325 Incl. 0.69238 -0.33034828 +0.21970773
P 1.39 H 26.2 G 0...
Title: A New Method for Classifying Flares of UV Ceti Type Stars: Differences Between Slow and Fast Flares Authors: H. A. Dal, S. Evren In this study, a new method is presented to classify flares derived from the photoelectric photometry of UV Ceti type stars. This method is based on statistical anal...
Title: EXOFAST: A fast exoplanetary fitting suite in IDL Authors: Jason Eastman, B. Scott Gaudi, Eric Agol We present EXOFAST, a fast, robust suite of routines written in IDL which is designed to fit exoplanetary transits and radial velocity variations simultaneously or separately, and charact...
Title: The First Billion Years project - III: The impact of stellar radiation on the coevolution of Populations II and III Authors: Jarrett L. Johnson, Claudio Dalla Vecchia, Sadegh Khochfar With the first metal enrichment by Population (Pop) III supernovae (SNe), the formation of the first meta...
MDA announces transformational US acquisition MacDonald, Dettwiler and Associates Ltd., a provider of essential information solutions, today announced that it has signed an agreement to acquire 100% of Space Systems/Loral, Inc. (SS/L) for US$875 million in a transaction that is immediatel...
Evidence of oceanic 'green rust' offers hope for the future A rare kind of mineral which scientists hope could be used to remove toxic metals and radioactive species from the environment played a similar, crucial role early in Earth's history. Research carried out by an international team of lead...
A FALCON 9 rocket body that was launched on the 22nd May, 2012, from Cape Canaveral, for the Dragon C-2 mission, is predicted to re-enter the Earths atmosphere on the 27th June, 2012 @ 01:40 GMT ± 48 hours.FALCON 9 RB
1 38349U 12027B 12175.88938238 .01250886 11899-4 47723-3 1006
2 38349 051.6567...
Orbital elements:
2012 MM11 PHA, Earth MOID = 0.0112 AU
Epoch 2012 Mar. 14.0 TT = JDT 2456000.5 MPC
M 305.26102 (2000.0) P Q
n 0.31908096 Peri. 123.53183 +0.98466054 -0.16710809
a 2.1209745 Node 246.13213 +0.13628712 +0.91621170
e 0.6519749 Incl. 3.14585 +0.10894695 +0.36418541
P 3.09 H...
IRC +10216 or CW Leonis is the best studied carbon star, but also a very peculiar one with the central star being embedded in a thick dust envelope. Therefore, its energy is emitted mostly at infrared wavelengths: in fact, IRC +10216 is the brightest object in the sky at a wavelength of 10 m. Recent spec...
Title: Is KR Cygni a Triple Star System? Authors: Esin Sipahi New multi-colour UBVR light curves of the eclipsing binary KR Cyg were obtained in 2005. Photometric solutions were derived using the Wilson- Devinney method. The result shows that KR Cyg is a near-contact binary system with a large effe...
Brighton meteorite a big score Brian Johnston, past president of the Pine Ridge Astronomical Society, says he has discovered five meteorites in the northern part of the municipality. Read more
Trust bids to secure white cliffs of Dover The National Trust is launching a £1.2m appeal to purchase and safeguard part of the white cliffs of Dover. The trust says purchasing the mile-long stretch to the east of Dover will allow it to prevent building, ensure a public right of way and conserve natur...
Joshua Slocum (February 20, 1844 - on or shortly after November 14, 1909) was the first man to sail single-handedly around the world. He was a Nova Scotian born, naturalised American seaman and adventurer, and a noted writer. On April 24, 1895, he set sail from Boston, Massachusetts. More than thre...
Martinus Justinus Godefriedus Veltman (born June 27, 1931 in Waalwijk) is a Dutch theoretical physicist. He shared the 1999 Nobel Prize in physics with his former student Gerardus 't Hooft for their work on particle theory. Read more
Orbital elements:
2012 MR7 Earth MOID = 0.2982 AU
Epoch 2012 Mar. 14.0 TT = JDT 2456000.5 MPC
M 150.16110 (2000.0) P Q
n 0.51115983 Peri. 172.59493 +0.01645583 -0.92843597
a 1.5491670 Node 275.93162 +0.89716720 +0.17756520
e 0.1737864 Incl. 21.90851 +0.44138443 -0.32630850
P 1.93 H 19.1...